Location: Newark
(52.3500°N, 175.9667°E)
Time: 22:00:15
(UTC+00:00)

Transit 4A - Pass Details

Date: 19 April 2021
Orbit: 871 x 974 km, 66.8° (Epoch: 16 May)

Event Time Altitude Azimuth Distance (km) Brightness Sun altitude
Rises 14:36:01 0° 265° (W) 3,605 - -19.4°
Exits shadow 14:38:48 - 276° (W) 2,700 10.0 -19.2°
Reaches altitude 10° 14:38:58 10° 277° (W) 2,645 10.0 -19.2°
Maximum altitude 14:44:11 28° 335° (NNW) 1,655 9.5 -18.7°
Drops below altitude 10° 14:49:19 10° 34° (NE) 2,589 11.5 -18.2°
Sets 14:52:11 0° 46° (NE) 3,516 12.6 -17.9°
